Tracking 30743 objects as of 20-Jun-2025
HD Live streaming from Space Station
objects crossing your sky now

DELTA 2 R/B(2)

Track DELTA 2 R/B(2) now!


NORAD ID: 25360
Int'l Code: 1998-035C
Perigee: 1,456.4 km
Apogee: 37,140.6 km
Inclination: 19.2 °
Period: 682.2 minutes
Semi major axis: 25669 km
RCS: 2.8329 m2 (large)
Launch date: June 10, 1998
Source: United States (US)
Launch site: AIR FORCE EASTERN TEST RANGE (AFETR)

Note: This is a ROCKET BODY
Your satellite tracking list
Your tracking list is empty




NASA's NSSDC Master Catalog

Two Line Element Set (TLE):
1 25360U 98035C   25171.56762675 -.00000089  00000-0  00000-0 0  9999
2 25360  19.1708 276.1639 6950687 207.6019 195.1781  2.11094225208204
Source of the keplerian elements: AFSPC